Back to Previous

Regional Weather Roundup

000
ASUS44 KLZK 261305
RWRLZK

WEATHER ROUNDUP FOR ARKANSAS
NATIONAL WEATHER SERVICE LITTLE ROCK AR
700 AM CST MON JAN 26 2015

NOTE: "FAIR" INDICATES FEW OR NO CLOUDS BELOW 12,000 FEET WITH NO
SIGNIFICANT WEATHER AND/OR OBSTRUCTIONS TO VISIBILITY.

ARZ001-003-010-029-261400-
NORTHWEST ARKANSAS
  
CITY           SKY/WX    TMP DP  RH WIND       PRES   REMARKS
FAYETTEVILLE   CLEAR     26  25  96 S6        30.13S WCI  19          
FORT SMITH     CLEAR     31  28  89 SW8       30.18R WCI  23          
HARRISON       CLOUDY    34  29  82 W8        30.09S WCI  27          
BENTONVILLE    CLEAR     28  25  86 SW5       30.12S WCI  23          
ROGERS         CLEAR     30  27  88 SW6       30.11F WCI  24          
SILOAM SPGS    PTCLDY    28  21  74 SW3       30.14S                  
HIGHFILL       CLEAR     27  24  89 SW6       30.11S WCI  20          
SPRINGDALE     CLEAR     32  28  86 W8        30.13S WCI  25          
$$

ARZ004-005-016-261400-
NORTH CENTRAL ARKANSAS
  
CITY           SKY/WX    TMP DP  RH WIND       PRES   REMARKS
BATESVILLE     CLEAR     34  27  75 CALM      30.11R                  
FLIPPIN        CLOUDY    36  27  69 NW10      30.11R                  
MTN HOME       CLOUDY    34  27  75 NW8       30.09R WCI  27          
$$

ARZ040-041-261400-
WEST CENTRAL ARKANSAS
  
CITY           SKY/WX    TMP DP  RH WIND       PRES   REMARKS
MENA           CLEAR     36  32  87 W3        30.15R                  
MOUNT IDA      CLEAR     34  29  82 CALM      30.13R                  
$$

ARZ009-017-025-026-028-261400-
NORTHEAST ARKANSAS
  
CITY           SKY/WX    TMP DP  RH WIND       PRES   REMARKS
JONESBORO      CLOUDY    36  30  79 N6        30.09R                  
NEWPORT        CLEAR     31  29  92 NW6       30.12R WCI  25          
WALNUT RIDGE   CLOUDY    34  27  75 W6        30.10R WCI  29          
BLYTHEVILLE    CLEAR     30  28  92 NW5       30.08R WCI  25          
$$

ARZ022-023-033-042-044-261400-
CENTRAL ARKANSAS
  
CITY           SKY/WX    TMP DP  RH WIND       PRES   REMARKS
LITTLE ROCK    PTCLDY    37  29  72 W5        30.15R                  
N LITTLE ROCK    N/A     36  32  87 W3        30.15R                  
JACKSONVILLE   MOCLDY    37  30  74 CALM      30.13R                  
SEARCY         CLEAR     32  29  88 CALM      30.15R                  
HOT SPRINGS    CLEAR     35  30  82 SW5       30.14R WCI  31          
RUSSELLVILLE   PTCLDY    34  29  82 W3        30.14R                  
CLINTON        MOCLDY    32  28  86 CALM      30.14R                  
$$

ARZ036-261400-
EAST ARKANSAS
  
CITY           SKY/WX    TMP DP  RH WIND       PRES   REMARKS
WEST MEMPHIS   CLOUDY    38  32  79 N6        30.09R                  
$$

ARZ050-053-066-070-073-261400-
SOUTHWEST ARKANSAS
  
CITY           SKY/WX    TMP DP  RH WIND       PRES   REMARKS
ARKADELPHIA    FAIR      34  32  92 CALM      30.17R                  
CAMDEN         CLEAR     32  28  86 CALM      30.16R                  
TEXARKANA      CLEAR     37  31  78 NW8       30.17R                  
EL DORADO      CLEAR     34  29  82 W3        30.16R                  
DE QUEEN       CLEAR     31  29  92 CALM      30.17R                  
$$

ARZ056-057-069-261400-
SOUTHEAST ARKANSAS
  
CITY           SKY/WX    TMP DP  RH WIND       PRES   REMARKS
PINE BLUFF     PTCLDY    34  29  82 CALM      30.15R                  
STUTTGART      CLEAR     36  28  75 N6        30.14R                  
MONTICELLO     PTCLDY    40  32  73 CALM      30.13R                  

$$



USA.gov is the U.S. government's official web portal to all federal, state and local government web resources and services.